TimeCDT,TemperatureF,Dew PointF,Humidity,Sea Level PressureIn,VisibilityMPH,Wind Direction,Wind SpeedMPH,Gust SpeedMPH,PrecipitationIn,Events,Conditions,WindDirDegrees,DateUTC
12:15 AM,49.5,47.3,92,30.10,3.0,NW,8.1,-,N/A,,Overcast,320,2013-05-06 05:15:00
12:35 AM,49.5,47.3,92,30.10,1.5,NNW,8.1,-,N/A,,Overcast,330,2013-05-06 05:35:00
12:55 AM,49.1,46.9,92,30.10,0.8,NNW,11.5,-,N/A,,Overcast,330,2013-05-06 05:55:00
1:15 AM,48.7,46.6,92,30.10,0.8,NNW,9.2,-,N/A,,Overcast,340,2013-05-06 06:15:00
1:35 AM,48.6,46.6,93,30.09,0.8,NNW,9.2,-,N/A,,Overcast,340,2013-05-06 06:35:00
1:55 AM,48.6,46.6,93,30.09,1.0,NNW,10.4,-,N/A,,Overcast,330,2013-05-06 06:55:00
2:15 AM,48.6,46.6,93,30.09,2.5,NNW,12.7,-,N/A,,Overcast,330,2013-05-06 07:15:00
2:35 AM,48.4,46.4,93,30.09,4.0,NNW,9.2,-,N/A,,Overcast,330,2013-05-06 07:35:00
2:55 AM,48.4,46.4,93,30.09,4.0,NNW,8.1,-,N/A,,Overcast,330,2013-05-06 07:55:00
3:15 AM,48.4,46.0,92,30.08,4.0,NNW,10.4,-,N/A,,Overcast,330,2013-05-06 08:15:00
3:35 AM,47.5,45.3,92,30.08,4.0,NNW,6.9,-,N/A,,Mostly Cloudy,330,2013-05-06 08:35:00
3:55 AM,47.3,45.0,92,30.08,4.0,NNW,6.9,-,N/A,,Scattered Clouds,330,2013-05-06 08:55:00
4:15 AM,46.8,44.6,92,30.08,4.0,NNW,5.8,-,N/A,,Clear,330,2013-05-06 09:15:00
4:35 AM,46.4,44.2,92,30.08,5.0,NW,6.9,-,N/A,,Clear,320,2013-05-06 09:35:00
4:55 AM,45.7,43.7,93,30.09,4.0,NW,6.9,-,N/A,,Clear,320,2013-05-06 09:55:00
5:15 AM,45.5,43.7,93,30.09,4.0,NW,8.1,-,N/A,,Clear,320,2013-05-06 10:15:00
5:35 AM,45.5,43.3,92,30.09,5.0,NW,9.2,-,N/A,,Clear,320,2013-05-06 10:35:00
5:55 AM,45.5,43.2,92,30.09,7.0,NW,9.2,-,N/A,,Clear,320,2013-05-06 10:55:00
6:15 AM,45.5,42.8,90,30.10,7.0,NNW,11.5,-,N/A,,Clear,330,2013-05-06 11:15:00
6:35 AM,45.1,42.4,90,30.10,5.0,NNW,10.4,-,N/A,,Clear,330,2013-05-06 11:35:00
6:55 AM,45.5,42.8,90,30.11,7.0,NNW,9.2,-,N/A,,Clear,340,2013-05-06 11:55:00
7:15 AM,45.7,42.6,89,30.11,7.0,NNW,10.4,-,N/A,,Clear,340,2013-05-06 12:15:00
7:35 AM,46.4,42.8,87,30.11,10.0,NNW,10.4,-,N/A,,Scattered Clouds,340,2013-05-06 12:35:00
7:55 AM,46.8,43.2,87,30.12,7.0,NNW,10.4,-,N/A,,Scattered Clouds,340,2013-05-06 12:55:00
8:15 AM,47.3,43.3,86,30.11,7.0,North,9.2,-,N/A,,Clear,350,2013-05-06 13:15:00
8:35 AM,47.7,43.5,86,30.11,10.0,North,9.2,-,N/A,,Clear,350,2013-05-06 13:35:00
8:55 AM,48.9,44.4,84,30.13,10.0,North,9.2,-,N/A,,Clear,360,2013-05-06 13:55:00
9:15 AM,50.2,45.1,83,30.11,10.0,North,9.2,-,N/A,,Clear,360,2013-05-06 14:15:00
9:35 AM,51.8,46.6,82,30.11,10.0,North,8.1,-,N/A,,Clear,360,2013-05-06 14:35:00
9:55 AM,53.8,47.7,80,30.11,10.0,North,9.2,-,N/A,,Clear,350,2013-05-06 14:55:00
10:15 AM,55.6,49.5,80,30.11,10.0,NNW,8.1,-,N/A,,Clear,340,2013-05-06 15:15:00
10:35 AM,57.2,49.8,76,30.11,10.0,North,9.2,-,N/A,,Clear,350,2013-05-06 15:35:00
10:55 AM,58.5,50.4,74,30.11,10.0,NNW,8.1,-,N/A,,Clear,340,2013-05-06 15:55:00
11:15 AM,60.8,52.9,75,30.10,10.0,NNW,8.1,-,N/A,,Clear,330,2013-05-06 16:15:00
11:35 AM,61.3,51.3,69,30.10,10.0,North,6.9,-,N/A,,Clear,360,2013-05-06 16:35:00
11:55 AM,62.8,52.2,68,30.10,10.0,North,6.9,-,N/A,,Clear,350,2013-05-06 16:55:00
12:15 PM,63.1,52.2,67,30.09,10.0,North,4.6,-,N/A,,Clear,360,2013-05-06 17:15:00
12:35 PM,64.4,52.7,66,30.09,10.0,North,4.6,-,N/A,,Clear,350,2013-05-06 17:35:00
12:55 PM,65.3,53.2,65,30.09,10.0,NNW,5.8,-,N/A,,Clear,340,2013-05-06 17:55:00
1:15 PM,65.5,52.5,63,30.09,10.0,WNW,3.5,-,N/A,,Clear,300,2013-05-06 18:15:00
1:35 PM,66.6,54.0,64,30.08,10.0,NW,6.9,-,N/A,,Clear,310,2013-05-06 18:35:00
1:55 PM,67.5,54.5,63,30.08,10.0,North,5.8,-,N/A,,Clear,360,2013-05-06 18:55:00
2:15 PM,67.8,52.3,58,30.07,10.0,NNW,8.1,-,N/A,,Clear,330,2013-05-06 19:15:00
2:55 PM,69.1,50.7,52,30.07,10.0,NNE,4.6,-,N/A,,Clear,30,2013-05-06 19:55:00
3:15 PM,70.0,51.1,51,30.06,10.0,North,3.5,-,N/A,,Clear,10,2013-05-06 20:15:00
3:35 PM,70.0,50.5,50,30.06,10.0,NW,3.5,-,N/A,,Clear,320,2013-05-06 20:35:00
3:55 PM,70.3,49.8,48,30.05,10.0,NW,4.6,-,N/A,,Clear,310,2013-05-06 20:55:00
4:15 PM,70.5,49.5,47,30.04,10.0,NNW,5.8,-,N/A,,Scattered Clouds,330,2013-05-06 21:15:00
4:35 PM,70.7,47.5,44,30.04,10.0,WNW,4.6,-,N/A,,Clear,300,2013-05-06 21:35:00
4:55 PM,70.9,48.0,44,30.04,10.0,WNW,6.9,-,N/A,,Scattered Clouds,300,2013-05-06 21:55:00
5:15 PM,70.9,47.1,43,30.03,10.0,NNW,3.5,-,N/A,,Clear,330,2013-05-06 22:15:00
5:35 PM,70.5,48.0,45,30.03,10.0,NNW,5.8,-,N/A,,Clear,330,2013-05-06 22:35:00
5:55 PM,71.1,47.8,44,30.03,10.0,NNW,6.9,-,N/A,,Clear,330,2013-05-06 22:55:00
6:15 PM,70.7,45.0,40,30.03,10.0,NW,3.5,-,N/A,,Clear,320,2013-05-06 23:15:00
6:35 PM,70.7,45.3,40,30.02,10.0,NW,4.6,-,N/A,,Clear,320,2013-05-06 23:35:00
6:55 PM,70.3,47.1,43,30.02,10.0,North,3.5,-,N/A,,Clear,10,2013-05-06 23:55:00
7:15 PM,69.8,46.6,43,30.02,10.0,North,3.5,-,N/A,,Clear,10,2013-05-07 00:15:00
7:35 PM,68.9,49.3,50,30.02,10.0,Calm,Calm,-,N/A,,Clear,0,2013-05-07 00:35:00
7:55 PM,67.6,48.7,51,30.02,10.0,Calm,Calm,-,N/A,,Clear,0,2013-05-07 00:55:00
8:15 PM,66.4,48.9,53,30.02,10.0,North,3.5,-,N/A,,Clear,360,2013-05-07 01:15:00
8:35 PM,65.1,49.1,56,30.02,10.0,Calm,Calm,-,N/A,,Clear,0,2013-05-07 01:35:00
8:55 PM,64.4,48.2,56,30.03,10.0,NNW,3.5,-,N/A,,Clear,330,2013-05-07 01:55:00
9:15 PM,62.2,49.1,62,30.04,10.0,NW,3.5,-,N/A,,Clear,310,2013-05-07 02:15:00
9:35 PM,62.2,49.1,62,30.04,10.0,NW,3.5,-,N/A,,Clear,320,2013-05-07 02:35:00
9:55 PM,61.7,49.5,64,30.05,10.0,NW,4.6,-,N/A,,Clear,310,2013-05-07 02:55:00
10:15 PM,60.1,49.5,68,30.06,10.0,NW,3.5,-,N/A,,Clear,320,2013-05-07 03:15:00
10:35 PM,57.4,49.3,74,30.06,10.0,NW,3.5,-,N/A,,Clear,320,2013-05-07 03:35:00
10:55 PM,59.7,49.1,68,30.06,10.0,NW,4.6,-,N/A,,Clear,320,2013-05-07 03:55:00
11:15 PM,54.9,49.6,83,30.06,10.0,WNW,4.6,-,N/A,,Clear,290,2013-05-07 04:15:00
11:35 PM,54.0,49.3,84,30.06,10.0,NW,4.6,-,N/A,,Clear,310,2013-05-07 04:35:00
11:55 PM,54.0,49.1,84,30.06,10.0,NW,5.8,-,N/A,,Clear,320,2013-05-07 04:55:00